| time (UTC) | temp F | wind direction | speed MPH | gust MPH | rain 1hr in | rain 24hr in | rain mn in | humidity % | barometer mb |
| 20260510104504 | 46 | 22 | 0.0 | 3.0 | 0.00 | 0.00 | 0.00 | 42 | 1019.0 |
| 20260510103004 | 47 | 30 | 0.0 | 1.0 | 0.00 | 0.00 | 0.00 | 40 | 1019.1 |
| 20260510101504 | 46 | 30 | 1.0 | 3.0 | 0.00 | 0.00 | 0.00 | 43 | 1019.0 |
| 20260510100004 | 47 | 30 | 1.0 | 3.0 | 0.00 | 0.00 | 0.00 | 42 | 1019.1 |
| 20260510094506 | 48 | 132 | 0.0 | 2.0 | 0.00 | 0.00 | 0.00 | 43 | 1019.0 |
| 20260510093004 | 47 | 132 | 0.0 | 2.0 | 0.00 | 0.00 | 0.00 | 43 | 1019.0 |
| 20260510091504 | 51 | 76 | 2.0 | 3.0 | 0.00 | 0.00 | 0.00 | 33 | 1019.0 |
| 20260510090005 | 55 | 71 | 2.0 | 5.0 | 0.00 | 0.00 | 0.00 | 31 | 1019.2 |
| 20260510084504 | 51 | 53 | 1.0 | 3.0 | 0.00 | 0.00 | 0.00 | 36 | 1019.2 |
| 20260510083016 | 52 | 22 | 0.0 | 2.0 | 0.00 | 0.00 | 0.00 | 36 | 1019.3 |
| 20260510081538 | 52 | 5 | 0.0 | 2.0 | 0.00 | 0.00 | 0.00 | 36 | 1019.3 |
| 20260510080030 | 50 | 5 | 0.0 | 2.0 | 0.00 | 0.00 | 0.00 | 39 | 1019.3 |
| 20260510074526 | 49 | 5 | 1.0 | 3.0 | 0.00 | 0.00 | 0.00 | 38 | 1019.4 |
| 20260510073025 | 50 | 12 | 1.0 | 3.0 | 0.00 | 0.00 | 0.00 | 38 | 1019.3 |
| 20260510071526 | 52 | 36 | 0.0 | 0.0 | 0.00 | 0.00 | 0.00 | 36 | 1019.3 |
| 20260510070035 | 52 | 36 | 0.0 | 1.0 | 0.00 | 0.00 | 0.00 | 35 | 1019.2 |
| 20260510064527 | 52 | 33 | 0.0 | 3.0 | 0.00 | 0.00 | 0.00 | 36 | 1019.2 |
| 20260510063029 | 54 | 16 | 0.0 | 2.0 | 0.00 | 0.00 | 0.00 | 32 | 1019.3 |
| 20260510061526 | 53 | 16 | 0.0 | 1.0 | 0.00 | 0.00 | 0.00 | 34 | 1019.3 |
| 20260510060028 | 54 | 16 | 0.0 | 1.0 | 0.00 | 0.00 | 0.00 | 32 | 1019.2 |
| 20260510054527 | 57 | 16 | 0.0 | 1.0 | 0.00 | 0.00 | 0.00 | 29 | 1019.3 |
| 20260510053027 | 58 | 16 | 0.0 | 0.0 | 0.00 | 0.00 | 0.00 | 28 | 1019.3 |
| 20260510051530 | 58 | 16 | 1.0 | 2.0 | 0.00 | 0.00 | 0.00 | 27 | 1019.3 |
| 20260510050026 | 59 | 24 | 1.0 | 3.0 | 0.00 | 0.00 | 0.00 | 26 | 1019.3 |
| 20260510044532 | 58 | 24 | 1.0 | 2.0 | 0.00 | 0.00 | 0.00 | 26 | 1019.2 |
| 20260510043026 | 60 | 17 | 1.0 | 3.0 | 0.00 | 0.00 | 0.00 | 26 | 1019.3 |
| 20260510041531 | 60 | 24 | 1.0 | 3.0 | 0.00 | 0.00 | 0.00 | 26 | 1019.3 |
| 20260510040026 | 60 | 18 | 1.0 | 3.0 | 0.00 | 0.00 | 0.00 | 26 | 1019.3 |
| 20260510034524 | 62 | 52 | 0.0 | 2.0 | 0.00 | 0.00 | 0.00 | 25 | 1019.1 |
| 20260510033028 | 64 | 69 | 0.0 | 3.0 | 0.00 | 0.00 | 0.00 | 23 | 1018.8 |
| 20260510031526 | 64 | 59 | 2.0 | 5.0 | 0.00 | 0.00 | 0.00 | 25 | 1018.8 |
| 20260510030027 | 65 | 53 | 3.0 | 4.0 | 0.00 | 0.00 | 0.00 | 25 | 1018.8 |
| 20260510024531 | 66 | 58 | 2.0 | 4.0 | 0.00 | 0.00 | 0.00 | 25 | 1018.7 |
| 20260510023034 | 68 | 88 | 1.0 | 3.0 | 0.00 | 0.00 | 0.00 | 23 | 1018.7 |
| 20260510021507 | 69 | 111 | 2.0 | 4.0 | 0.00 | 0.00 | 0.00 | 20 | 1018.7 |
| 20260510020003 | 71 | 137 | 2.0 | 4.0 | 0.00 | 0.00 | 0.00 | 18 | 1018.7 |
| 20260510014505 | 72 | 155 | 2.0 | 5.0 | 0.00 | 0.00 | 0.00 | 16 | 1018.7 |
| 20260510013005 | 72 | 145 | 2.0 | 6.0 | 0.00 | 0.00 | 0.00 | 18 | 1018.9 |
| 20260510011507 | 72 | 137 | 3.0 | 6.0 | 0.00 | 0.00 | 0.00 | 15 | 1019.1 |
| 20260510010004 | 72 | 156 | 4.0 | 8.0 | 0.00 | 0.00 | 0.00 | 15 | 1019.2 |
| 20260510004528 | 74 | 132 | 7.0 | 11.0 | 0.00 | 0.00 | 0.00 | 15 | 1019.4 |
| 20260510003027 | 74 | 153 | 4.0 | 10.0 | 0.00 | 0.00 | 0.00 | 14 | 1019.5 |
| 20260510001506 | 74 | 187 | 4.0 | 8.0 | 0.00 | 0.00 | 0.00 | 16 | 1019.6 |
| 20260510000013 | 75 | 212 | 5.0 | 12.0 | 0.00 | 0.00 | 0.00 | 18 | 1019.7 |
| 20260509234505 | 75 | 186 | 2.0 | 8.0 | 0.00 | 0.00 | 0.00 | 17 | 1019.8 |
| 20260509233003 | 74 | 128 | 7.0 | 14.0 | 0.00 | 0.00 | 0.00 | 16 | 1019.7 |
| 20260509231527 | 74 | 158 | 5.0 | 9.0 | 0.00 | 0.00 | 0.00 | 15 | 1019.9 |
| 20260509230028 | 74 | 163 | 5.0 | 9.0 | 0.00 | 0.00 | 0.00 | 15 | 1020.0 |
| 20260509224527 | 74 | 125 | 2.0 | 9.0 | 0.00 | 0.00 | 0.00 | 17 | 1019.9 |
| 20260509223026 | 73 | 109 | 4.0 | 10.0 | 0.00 | 0.00 | 0.00 | 15 | 1020.1 |
| 20260509221527 | 74 | 130 | 6.0 | 11.0 | 0.00 | 0.00 | 0.00 | 17 | 1020.2 |
| 20260509220033 | 73 | 107 | 5.0 | 12.0 | 0.00 | 0.00 | 0.00 | 17 | 1020.3 |
| 20260509214531 | 72 | 20 | 1.0 | 9.0 | 0.00 | 0.00 | 0.00 | 19 | 1020.5 |
| 20260509213028 | 72 | 110 | 7.0 | 13.0 | 0.00 | 0.00 | 0.00 | 18 | 1020.8 |
| 20260509211527 | 71 | 158 | 2.0 | 8.0 | 0.00 | 0.00 | 0.00 | 18 | 1020.9 |
| 20260509210034 | 70 | 360 | 3.0 | 11.0 | 0.00 | 0.00 | 0.00 | 20 | 1021.0 |
| 20260509204535 | 70 | 159 | 2.0 | 10.0 | 0.00 | 0.00 | 0.00 | 18 | 1021.3 |
| 20260509203029 | 70 | 141 | 1.0 | 9.0 | 0.00 | 0.00 | 0.00 | 23 | 1021.5 |
| 20260509201530 | 70 | 62 | 1.0 | 4.0 | 0.00 | 0.00 | 0.00 | 21 | 1021.6 |
| 20260509200028 | 68 | 45 | 1.0 | 9.0 | 0.00 | 0.00 | 0.00 | 22 | 1021.7 |
| 20260509194528 | 68 | 78 | 2.0 | 10.0 | 0.00 | 0.00 | 0.00 | 22 | 1021.9 |
| 20260509193029 | 67 | 134 | 2.0 | 8.0 | 0.00 | 0.00 | 0.00 | 24 | 1022.0 |
| 20260509191528 | 68 | 108 | 7.0 | 10.0 | 0.00 | 0.00 | 0.00 | 25 | 1022.1 |
| 20260509190027 | 65 | 92 | 2.0 | 8.0 | 0.00 | 0.00 | 0.00 | 26 | 1022.4 |
| 20260509184543 | 65 | 49 | 4.0 | 8.0 | 0.00 | 0.00 | 0.00 | 24 | 1022.5 |
| 20260509183029 | 64 | 173 | 1.0 | 6.0 | 0.00 | 0.00 | 0.00 | 28 | 1022.6 |
| 20260509181528 | 63 | 266 | 0.0 | 8.0 | 0.00 | 0.00 | 0.00 | 30 | 1022.6 |
| 20260509180025 | 63 | 153 | 2.0 | 10.0 | 0.00 | 0.00 | 0.00 | 29 | 1022.6 |
| 20260509174533 | 61 | 75 | 1.0 | 5.0 | 0.00 | 0.00 | 0.00 | 33 | 1022.7 |
| 20260509173026 | 61 | 128 | 3.0 | 7.0 | 0.00 | 0.00 | 0.00 | 34 | 1022.7 |
| 20260509171506 | 60 | 128 | 3.0 | 6.0 | 0.00 | 0.00 | 0.00 | 38 | 1022.7 |
| 20260509170004 | 59 | 134 | 4.0 | 9.0 | 0.00 | 0.00 | 0.00 | 39 | 1022.8 |
| 20260509164504 | 58 | 188 | 0.0 | 8.0 | 0.00 | 0.00 | 0.00 | 43 | 1022.9 |
| 20260509163007 | 57 | 153 | 3.0 | 8.0 | 0.00 | 0.00 | 0.00 | 43 | 1022.9 |
| 20260509161506 | 57 | 194 | 3.0 | 7.0 | 0.00 | 0.00 | 0.00 | 44 | 1022.9 |
| 20260509160004 | 56 | 166 | 1.0 | 5.0 | 0.00 | 0.00 | 0.00 | 47 | 1022.9 |
| 20260509154507 | 55 | 199 | 2.0 | 5.0 | 0.00 | 0.00 | 0.00 | 49 | 1022.8 |
| 20260509153015 | 52 | 182 | 1.0 | 4.0 | 0.00 | 0.00 | 0.00 | 51 | 1022.8 |
| 20260509151504 | 51 | 190 | 1.0 | 4.0 | 0.00 | 0.00 | 0.00 | 56 | 1022.9 |
| 20260509150009 | 49 | 198 | 0.0 | 3.0 | 0.00 | 0.00 | 0.00 | 58 | 1022.9 |
| 20260509144521 | 48 | 277 | 1.0 | 3.0 | 0.00 | 0.00 | 0.00 | 60 | 1023.0 |
| 20260509143005 | 45 | 283 | 0.0 | 2.0 | 0.00 | 0.00 | 0.00 | 63 | 1023.0 |
| 20260509141513 | 45 | 312 | 0.0 | 3.0 | 0.00 | 0.00 | 0.00 | 63 | 1022.9 |
| 20260509140013 | 42 | 294 | 1.0 | 2.0 | 0.00 | 0.00 | 0.00 | 66 | 1022.9 |
| 20260509134515 | 41 | 316 | 0.0 | 2.0 | 0.00 | 0.00 | 0.00 | 68 | 1022.8 |
| 20260509133017 | 38 | 302 | 2.0 | 4.0 | 0.00 | 0.00 | 0.00 | 71 | 1022.6 |
| 20260509131515 | 37 | 315 | 2.0 | 5.0 | 0.00 | 0.00 | 0.00 | 72 | 1022.5 |
| 20260509130012 | 38 | 335 | 0.0 | 3.0 | 0.00 | 0.00 | 0.00 | 71 | 1022.3 |
| 20260509124514 | 37 | 321 | 2.0 | 3.0 | 0.00 | 0.00 | 0.00 | 72 | 1022.2 |
| 20260509123018 | 37 | 17 | 1.0 | 3.0 | 0.00 | 0.00 | 0.00 | 71 | 1022.1 |
| 20260509121527 | 38 | 190 | 0.0 | 2.0 | 0.00 | 0.00 | 0.00 | 68 | 1022.2 |
| 20260509120017 | 40 | 282 | 1.0 | 3.0 | 0.00 | 0.00 | 0.00 | 66 | 1022.3 |
| 20260509114528 | 40 | 299 | 1.0 | 3.0 | 0.00 | 0.00 | 0.00 | 66 | 1022.3 |
| 20260509113024 | 39 | 5 | 1.0 | 3.0 | 0.00 | 0.00 | 0.00 | 65 | 1022.3 |
| 20260509110020 | 41 | 86 | 0.0 | 3.0 | 0.00 | 0.00 | 0.00 | 62 | 1022.4 |